Preview of NWS' New Version of Forecast
This preview is not operational and should not be used for support decisions.

Regional Weather Roundup (RWR)

Issued by Gray - Portland, ME (GYX)

                            
000
ASUS41 KGYX 211810
RWRGYX
WEATHER ROUNDUP FOR MAINE AND NEW HAMPSHIRE
NATIONAL WEATHER SERVICE GRAY ME
200 PM EDT WED AUG 21 2019

MEZ002-005-006-010-012-015-018-020-021-024-026-027-029-211900-
MAINE
  
CITY           SKY/WX    TMP DP  RH WIND       PRES   REMARKS
PORTLAND       TSTM      70  67  90 SW8       29.95R VSB 1            
6HR MIN TEMP:  67; 6HR MAX TEMP:  77; 6HR PCP:  1.14;                

SANFORD        PTSUNNY   71  70  96 SE5       29.93F                  
BAR HARBOR     PTSUNNY   72  65  78 S14G22    29.96S                  
WISCASSET      LGT RAIN  71  67  87 SW5       29.97R                  
6HR MIN TEMP:  65; 6HR MAX TEMP:  76; 6HR PCP:  0.01;                

ROCKLAND       PTSUNNY   70  67  90 S8        29.95F                  
FRYEBURG       HVY RAIN  67  65  93 VRB6      29.97R FOG              
6HR MIN TEMP:  60; 6HR MAX TEMP:  71; 6HR PCP:  0.07;                

LEWISTONAUBURN RAIN      70  68  93 S6        29.96R                  
AUGUSTA        LGT RAIN  73  68  84 S9        29.95R                  
6HR MIN TEMP:  62; 6HR MAX TEMP:  76; 6HR PCP: TRACE;                

WATERVILLE     LGT RAIN  74  68  81 S8        29.91R                  
BANGOR         CLOUDY    76  66  71 S15       29.92F                  
6HR MIN TEMP:  65; 6HR MAX TEMP:  79;                                

GREENVILLE     NOT AVBL                                               
MILLINOCKET    FAIR      76  63  64 VRB3      29.91F                  
6HR MIN TEMP:  63; 6HR MAX TEMP:  76;                                

HOULTON        FAIR      78  60  53 S12       29.89F                  
6HR MIN TEMP:  65; 6HR MAX TEMP:  81;                                

PRESQUE ISLE   FAIR      83  57  41 SW17      29.87F                  
6HR MIN TEMP:  62; 6HR MAX TEMP:  84;                                

FRENCHVILLE    FAIR      78  54  43 S12       29.87F                  
6HR MIN TEMP:  61; 6HR MAX TEMP:  79;                                

CARIBOU        FAIR      82  58  43 S7        29.86F                  
6HR MIN TEMP:  63; 6HR MAX TEMP:  83;                                

$$

NHZ002-005-008-009-011-012-014-211900-
NEW HAMPSHIRE
  
CITY           SKY/WX    TMP DP  RH WIND       PRES   REMARKS
PORTSMOUTH     CLOUDY    77  68  74 NE6       29.91F                  
ROCHESTER      FAIR      74  69  85 SE6       29.92F                  
6HR MIN TEMP:  65; 6HR MAX TEMP:  74;                                

NASHUA         RAIN      79  75  87 S5        29.92F                  
MANCHESTER     CLOUDY    79  71  76 VRB3      29.89F                  
6HR MIN TEMP:  67; 6HR MAX TEMP:  79; 6HR PCP:  0.04;                

CONCORD        FAIR      75  68  78 CALM      29.92F                  
6HR MIN TEMP:  61; 6HR MAX TEMP:  75; 6HR PCP:  0.13;                

LACONIA        LGT RAIN  66  64  94 VRB3      29.95S                  
PLYMOUTH       HVY RAIN  63  62  96 CALM      29.95F                  
BERLIN         NOT AVBL                                               
WHITEFIELD     LGT RAIN  70  65  84 CALM      29.93F                  
6HR MIN TEMP:  54; 6HR MAX TEMP:  72; 6HR PCP:  0.02;                

JAFFREY        PTSUNNY   75  70  84 VRB3      29.94F                  
6HR MIN TEMP:  66; 6HR MAX TEMP:  77; 6HR PCP:  0.40;                

KEENE          LGT RAIN  74  71  91 CALM      29.90F                  
LEBANON        LGT RAIN  69  65  86 NE5       29.91F                  
6HR MIN TEMP:  59; 6HR MAX TEMP:  69; 6HR PCP:  0.75;                

MT WASHINGTON  LGT RAIN  52  52 100 SW23        N/A  VSB 1/4          
6HR MIN TEMP:  51; 6HR MAX TEMP:  57; 6HR PCP:  0.03;                

$$

VTZ005-007-008-211900-
VERMONT
  
CITY           SKY/WX    TMP DP  RH WIND       PRES   REMARKS
ST JOHNSBURY     N/A     69  67  93 MISG      29.90F                  
MONTPELIER     CLOUDY    68  66  93 S6        29.95F                  
BURLINGTON     LGT RAIN  73  67  81 S7        29.86F                  
$$

MAZ007-012-024-CTZ003-RIZ002-NYZ038-NYZ072-211900-
SOUTHERN NEW ENGLAND AND NY
  
CITY           SKY/WX    TMP DP  RH WIND       PRES   REMARKS
BOSTON         CLOUDY    87  71  58 S10       29.90F HX  93           
WORCESTER      FAIR      79  71  76 S12       29.94F                  
NANTUCKET      FAIR      73  70  90 S15       29.97S                  
PROVIDENCE     PTSUNNY   82  72  71 S16       29.93F                  
HARTFORD       TSTM      82  70  66 S7        29.89F                  
ALBANY         PTSUNNY   80  71  74 S15       29.86F                  
NEW YORK CITY  PTSUNNY   88  69  53 SW9       29.87F HX  92           
$$

ANZ081-ANZ082-ANZ150-NHZ014-MEZ023>029-211900-
COASTAL MARINE OBSERVATIONS
  
STATION/POSITION TIME  TEMP    WIND        PRES    WAVE
                       AIR SEA DIR/SP/G            HT/PER
                 (UTC) (F)     (DEG/KT/KT) (MB)    (FT/S)
MATINICUS ROCK   1750   64                 1014.2F
ISLE OF SHOALS   1700   71     150/ 11/ 12 1013.4F
JEFFREYS LEDGE   1738      67                N/A     2/11
CASHES LEDGE BUO 1750   67 64  170/  8/ 10 1014.7F   2/ 6
GEORGES BANK BUO 1750   72 68  130/  6/  8 1017.5R   3/12
$$

.............KEY..............
   WCI - WIND CHILL
   TC  - TEMPERATURE IN CELSIUS
   VSB - VISIBILITY IN MILES
   HX  - HEAT INDEX
   FAIR- INDICATES FEW OR NO CLOUDS BELOW 12,000 FT, WITH NO 
         SIGNIFICANT WEATHER AND/OR OBSTRUCTIONS TO VISIBILITY.